[[{"header":{"parameterUnit":"m.s-1","parameterCategory":1,"la1":30.2991,"la2":30.254,"lo1":-89.0895,"lo2":-89.0444,"dy":0.0017,"dx":0.0017,"nx":28,"ny":28,"refTime":"2024-04-12T03:00:00:Z","depth":0,"parameterNumber":2,"parameterNumberName":"U-component_of_WINDS"},"data":[0,0,0,0,0,0,0,0,0,0,0,0,0,0,0,0,0,0,0,0,0,0,0,0,0,0,0,0,0,0,0,0,0,0,0,0,0,0,0,0,0,0,0,0,0,0,0,0,0,0,0,0,0,0,0,0,0,0,1.7482,1.7482,0,1.7515,1.7515,1.7516,1.7505,1.7504,1.7504,1.7503,1.754,1.7542,1.7544,0,0,0,0,0,0,0,0,0,0,0,0,0,1.7413,1.7415,1.7482,1.7482,1.7482,1.7515,1.7515,1.7516,1.7505,1.7504,1.7503,1.7503,1.754,1.7542,1.7544,0,0,0,0,0,0,0,0,0,0,0,0,0,1.7445,1.7415,1.7482,1.7481,1.7481,1.7515,1.7515,1.7516,1.7505,1.7504,1.7503,1.7502,1.7539,1.7542,1.7544,1.7581,0,0,1.7552,1.7553,0,0,0,0,0,0,0,0,1.7443,1.7447,1.7481,1.7481,1.7481,1.7505,1.7505,1.7538,1.7506,1.7496,1.7503,1.7502,1.753,1.7533,1.7541,1.7583,1.7584,1.7552,1.7553,1.7554,1.7555,0,0,0,0,0,0,0,1.7441,1.7446,1.7495,1.7481,1.7482,1.7481,1.7484,1.7511,1.7519,1.7497,1.7496,1.75,1.753,1.7539,1.7542,1.7585,1.7552,1.7554,1.7556,1.7557,1.7661,1.7662,0,0,0,0,0,0,1.7438,1.7444,1.7494,1.7496,1.7459,1.7483,1.7486,1.7498,1.7518,1.752,1.7501,1.75,1.7535,1.7539,1.7544,1.7589,1.7554,1.7557,1.7558,1.7659,1.7661,1.7662,0,0,0,0,0,0,1.7436,1.7442,1.7492,1.747,1.7476,1.7485,1.7499,1.75,1.7509,1.7521,1.7523,1.7509,1.7535,1.754,1.7572,1.7591,1.7558,1.756,1.7658,1.766,1.7662,1.7681,0,0,0,0,0,0,1.7434,1.7442,1.7455,1.747,1.7477,1.7519,1.75,1.7501,1.7513,1.7511,1.7529,1.7531,1.7534,1.7568,1.7575,1.7593,1.7562,1.7656,1.7659,1.7661,1.7679,1.7683,1.7687,0,0,0,0,0,1.7432,1.7459,1.7455,1.7462,1.7493,1.752,1.7524,1.7526,1.7514,1.7528,1.7537,1.7531,1.7587,1.7572,1.7579,1.7598,1.7655,1.7658,1.7661,1.7677,1.7682,1.7687,0,0,0,0,0,0,1.7447,1.7461,1.7457,1.749,1.7504,1.7518,1.7536,1.7532,1.755,1.7548,1.755,1.7555,1.7588,1.7596,1.7578,1.7637,1.762,1.7624,1.7629,1.7635,1.7639,1.7636,1.7564,0,0,0,0,0,1.7454,1.7473,1.7485,1.7513,1.752,1.7527,1.7538,1.7538,1.7553,1.756,1.757,1.7586,1.7608,1.7622,1.7642,1.768,1.7685,1.7697,1.7701,1.7705,1.7709,1.7731,1.7737,1.7672,1.7672,1.7672,0,0,1.7468,1.7479,1.7491,1.7516,1.7527,1.7548,1.7532,1.7554,1.7571,1.7563,1.7594,1.7603,1.7621,1.7656,1.7672,1.7664,1.7728,1.7708,1.7711,1.7713,1.7735,1.7741,1.7746,1.7674,1.7673,1.7673,0,0,1.7506,1.7515,1.754,1.7551,1.7567,1.7572,1.7578,1.7594,1.7599,1.7629,1.7625,1.7645,1.7682,1.7695,1.7707,1.7752,1.7748,1.7759,1.7781,1.7803,1.7808,1.7812,1.783,1.7836,1.7762,1.7762,1.7762,0,1.7523,1.7553,1.7553,1.7577,1.7589,1.7583,1.7609,1.762,1.7643,1.7652,1.7643,1.769,1.7701,1.774,1.7752,1.7761,1.7769,1.7756,1.7807,1.7811,1.7816,1.7832,1.7839,1.7764,1.7764,1.7763,1.7763,0,1.7573,1.7595,1.7613,1.7634,1.7648,1.7673,1.7679,1.7694,1.7693,1.7699,1.7732,1.7746,1.777,1.7779,1.7779,1.7819,1.7814,1.7806,1.7789,1.7823,1.7839,1.7845,1.7765,1.7765,1.7765,1.7764,0,0,1.762,1.7642,1.7649,1.7659,1.7678,1.7695,1.7721,1.7743,1.7756,1.7773,1.7795,1.7827,1.782,1.7833,1.7835,1.7854,1.789,1.7844,1.7844,1.7853,1.7938,1.7944,1.7951,1.7888,1.7889,1.789,1.7936,0,1.766,1.7703,1.7705,1.7745,1.7766,1.7761,1.7784,1.7799,1.7806,1.7826,1.7834,1.7857,1.7845,1.7853,1.7872,1.7882,1.7908,1.7879,1.7911,1.7912,1.7906,1.7959,1.7966,1.8009,1.7942,1.7943,1.7944,0,1.7712,1.773,1.7771,1.7788,1.7797,1.7817,1.7839,1.7857,1.7875,1.7879,1.7894,1.7894,1.7922,1.7904,1.7944,1.7924,1.7938,1.7945,1.7947,1.795,1.793,1.7965,1.8022,1.8029,1.7954,1.7953,1.7952,0,1.7744,1.7778,1.7807,1.7816,1.7836,1.7851,1.786,1.7876,1.789,1.791,1.7919,1.7942,1.7955,1.7974,1.798,1.7967,1.8021,1.8003,1.8026,1.8026,1.8038,1.8037,1.8099,1.8046,1.8045,1.8045,1.8045,0,1.7788,1.7814,1.7822,1.784,1.787,1.7873,1.7903,1.7912,1.7927,1.7948,1.7946,1.7966,1.7973,1.7996,1.8001,1.8034,1.804,1.8045,1.8046,1.8046,1.8045,1.8055,1.8052,1.8047,1.8047,1.8046,1.8046,0,1.7828,1.7834,1.7866,1.7883,1.7888,1.7909,1.7924,1.7943,1.795,1.7977,1.7984,1.7995,1.8022,1.803,1.8062,1.8066,1.8105,1.8103,1.8099,1.8099,1.8122,1.812,1.8193,1.8203,1.8142,1.8143,1.8143,0,1.7856,1.7876,1.7895,1.7909,1.7918,1.794,1.7954,1.7959,1.7974,1.7997,1.8013,1.8039,1.806,1.8102,1.8115,1.814,1.8139,1.8163,1.8143,1.8142,1.8141,1.814,1.8143,1.8167,1.8168,1.8168,1.8169,0,1.7906,1.7909,1.7928,1.795,1.7967,1.7984,1.8001,1.8013,1.802,1.8038,1.8064,1.808,1.8113,1.8139,1.8165,1.8177,1.8175,1.8175,1.8182,1.8181,1.8178,1.8182,1.811,1.8173,1.8173,1.8172,1.8172,1.8172,1.7942,1.796,1.7976,1.7999,1.8012,1.8028,1.8047,1.8056,1.8078,1.8104,1.8106,1.8135,1.8154,1.8188,1.8201,1.8226,1.8219,1.8229,1.8231,1.8234,1.8236,1.8174,1.823,1.823,1.823,1.823,1.823,0,1.7993,1.8003,1.8024,1.8047,1.8066,1.8061,1.808,1.8096,1.8121,1.8139,1.8159,1.8191,1.8217,1.8232,1.8258,1.8275,1.8275,1.8282,1.8281,1.8284,1.824,1.8232,1.8282,1.8282,1.8282,1.8282,1.8282,1.8282,1.8021,1.8052,1.8056,1.8094,1.8105,1.8132,1.8144,1.816,1.8174,1.8208,1.823,1.8239,1.8256,1.8284,1.8308,1.8312,1.8323,1.8331,1.8334,1.8292,1.8287,1.8282,1.8274,1.8333,1.8333,1.8377,1.8377,1.8377]},{"header":{"parameterUnit":"m.s-1","parameterCategory":1,"la1":30.2991,"la2":30.254,"lo1":-89.0895,"lo2":-89.0444,"dy":0.0017,"dx":0.0017,"nx":28,"ny":28,"refTime":"2024-04-12T03:00:00:Z","depth":0,"parameterNumber":3,"parameterNumberName":"V-component_of_WINDS"},"data":[0,0,0,0,0,0,0,0,0,0,0,0,0,0,0,0,0,0,0,0,0,0,0,0,0,0,0,0,0,0,0,0,0,0,0,0,0,0,0,0,0,0,0,0,0,0,0,0,0,0,0,0,0,0,0,0,0,0,-2.5838,-2.5838,0,-2.5858,-2.5858,-2.5858,-2.5864,-2.5864,-2.5864,-2.5864,-2.5884,-2.5884,-2.5885,0,0,0,0,0,0,0,0,0,0,0,0,0,-2.5804,-2.5804,-2.5838,-2.5838,-2.5838,-2.5857,-2.5858,-2.5858,-2.5864,-2.5864,-2.5864,-2.5864,-2.5884,-2.5884,-2.5885,0,0,0,0,0,0,0,0,0,0,0,0,0,-2.582,-2.5805,-2.5838,-2.5844,-2.5844,-2.5857,-2.5858,-2.5858,-2.5864,-2.5864,-2.5864,-2.5864,-2.5883,-2.5884,-2.5885,-2.5894,0,0,-2.5888,-2.5888,0,0,0,0,0,0,0,0,-2.582,-2.5822,-2.5843,-2.5843,-2.5844,-2.5858,-2.5853,-2.587,-2.5864,-2.5857,-2.5864,-2.5864,-2.5875,-2.5877,-2.5881,-2.5895,-2.5895,-2.5888,-2.5889,-2.5889,-2.5889,0,0,0,0,0,0,0,-2.5818,-2.5821,-2.5846,-2.5843,-2.5844,-2.5845,-2.5847,-2.5856,-2.5867,-2.5857,-2.5858,-2.586,-2.5876,-2.588,-2.5881,-2.5896,-2.5888,-2.5889,-2.5889,-2.589,-2.5915,-2.5916,0,0,0,0,0,0,-2.5816,-2.582,-2.5845,-2.5846,-2.5831,-2.5846,-2.5848,-2.5854,-2.5866,-2.5868,-2.586,-2.586,-2.5879,-2.588,-2.5882,-2.5892,-2.5889,-2.589,-2.589,-2.5915,-2.5915,-2.5916,0,0,0,0,0,0,-2.5816,-2.5819,-2.5844,-2.5833,-2.5836,-2.5846,-2.5853,-2.5854,-2.5859,-2.5869,-2.587,-2.5863,-2.5879,-2.5881,-2.589,-2.5893,-2.589,-2.5891,-2.5915,-2.5915,-2.5916,-2.5912,0,0,0,0,0,0,-2.5815,-2.5818,-2.5822,-2.5833,-2.5837,-2.5853,-2.5853,-2.5855,-2.586,-2.5861,-2.5872,-2.5873,-2.5879,-2.5889,-2.5891,-2.5894,-2.5892,-2.5915,-2.5915,-2.5915,-2.5912,-2.5912,-2.5912,0,0,0,0,0,-2.5813,-2.5821,-2.5822,-2.5825,-2.5842,-2.5853,-2.5855,-2.5861,-2.586,-2.5864,-2.587,-2.5873,-2.5892,-2.589,-2.5893,-2.5896,-2.5915,-2.5915,-2.5915,-2.5912,-2.5912,-2.5912,0,0,0,0,0,0,-2.581,-2.5822,-2.5824,-2.5835,-2.5843,-2.5854,-2.5859,-2.5861,-2.5869,-2.5869,-2.5876,-2.5878,-2.5887,-2.5892,-2.589,-2.5903,-2.5903,-2.5904,-2.59,-2.59,-2.59,-2.5899,-2.5893,0,0,0,0,0,-2.581,-2.5818,-2.5829,-2.5837,-2.5841,-2.5849,-2.5854,-2.5858,-2.5866,-2.5869,-2.5876,-2.5883,-2.5891,-2.5896,-2.5903,-2.5913,-2.5914,-2.5916,-2.5916,-2.5916,-2.5917,-2.592,-2.5921,-2.5917,-2.5917,-2.5917,0,0,-2.5812,-2.5819,-2.5824,-2.5837,-2.5843,-2.585,-2.5852,-2.586,-2.5865,-2.587,-2.5879,-2.5884,-2.5893,-2.5902,-2.5906,-2.5907,-2.5918,-2.5916,-2.5916,-2.5917,-2.5921,-2.5921,-2.5922,-2.5917,-2.5917,-2.5917,0,0,-2.5818,-2.5825,-2.5832,-2.5838,-2.5847,-2.5852,-2.5854,-2.5864,-2.5867,-2.5877,-2.588,-2.5886,-2.5899,-2.5905,-2.591,-2.5915,-2.5918,-2.5918,-2.5918,-2.5922,-2.5922,-2.5923,-2.5924,-2.5924,-2.5918,-2.5918,-2.5918,0,-2.5818,-2.583,-2.5836,-2.5843,-2.5848,-2.5852,-2.5859,-2.5865,-2.5876,-2.5879,-2.5879,-2.5895,-2.5901,-2.591,-2.5912,-2.5916,-2.5917,-2.5917,-2.5922,-2.5922,-2.5922,-2.5924,-2.5924,-2.5918,-2.5918,-2.5918,-2.5918,0,-2.5829,-2.5837,-2.5842,-2.5852,-2.5857,-2.5864,-2.5871,-2.5875,-2.5878,-2.5883,-2.5891,-2.5899,-2.5907,-2.591,-2.5913,-2.592,-2.5919,-2.592,-2.5921,-2.5923,-2.5924,-2.5925,-2.5918,-2.5918,-2.5918,-2.5918,0,0,-2.5835,-2.5847,-2.5848,-2.5852,-2.5862,-2.5868,-2.5874,-2.5882,-2.5886,-2.5893,-2.5898,-2.5908,-2.5909,-2.5914,-2.5918,-2.5921,-2.5924,-2.5922,-2.5922,-2.5921,-2.593,-2.5929,-2.593,-2.5925,-2.5925,-2.5926,-2.5929,0,-2.5842,-2.5854,-2.5859,-2.5868,-2.5875,-2.5878,-2.5884,-2.589,-2.5894,-2.59,-2.5904,-2.5911,-2.5912,-2.5914,-2.5918,-2.5923,-2.5926,-2.5923,-2.593,-2.593,-2.5927,-2.5931,-2.593,-2.5933,-2.593,-2.593,-2.593,0,-2.5852,-2.5858,-2.5868,-2.5875,-2.5878,-2.5883,-2.589,-2.5896,-2.5902,-2.5905,-2.591,-2.5913,-2.5919,-2.5918,-2.5926,-2.5924,-2.5927,-2.593,-2.593,-2.5931,-2.593,-2.5931,-2.5934,-2.5935,-2.5931,-2.5931,-2.5931,0,-2.5853,-2.5865,-2.5872,-2.5875,-2.5884,-2.5887,-2.5891,-2.5897,-2.5901,-2.5907,-2.591,-2.5916,-2.592,-2.5924,-2.5929,-2.5928,-2.5936,-2.5936,-2.5938,-2.5938,-2.594,-2.594,-2.5943,-2.5942,-2.5942,-2.5942,-2.5942,0,-2.586,-2.5866,-2.5873,-2.5877,-2.5884,-2.5888,-2.5894,-2.5898,-2.5904,-2.5908,-2.5912,-2.5916,-2.5921,-2.5926,-2.593,-2.5935,-2.5937,-2.5939,-2.594,-2.5938,-2.5938,-2.5941,-2.594,-2.5942,-2.5942,-2.5942,-2.5942,0,-2.5864,-2.5869,-2.5877,-2.5884,-2.5886,-2.589,-2.5896,-2.59,-2.5903,-2.5909,-2.5911,-2.5917,-2.5922,-2.5927,-2.5935,-2.5937,-2.5942,-2.5944,-2.594,-2.5941,-2.5942,-2.5942,-2.5947,-2.5948,-2.5946,-2.5946,-2.5946,0,-2.5868,-2.5873,-2.588,-2.5883,-2.5887,-2.5892,-2.5896,-2.59,-2.5904,-2.591,-2.5913,-2.5919,-2.5924,-2.5933,-2.5937,-2.5943,-2.5944,-2.5945,-2.5945,-2.5943,-2.5943,-2.5943,-2.5943,-2.5945,-2.5945,-2.5945,-2.5945,0,-2.5875,-2.5876,-2.5881,-2.5887,-2.5891,-2.5896,-2.5901,-2.5903,-2.5908,-2.5912,-2.5917,-2.5921,-2.5928,-2.5934,-2.5939,-2.5943,-2.5944,-2.5945,-2.5946,-2.5945,-2.5942,-2.5943,-2.594,-2.5945,-2.5945,-2.5945,-2.5945,-2.5945,-2.5878,-2.5882,-2.5887,-2.5892,-2.5896,-2.59,-2.5904,-2.5907,-2.5912,-2.5918,-2.592,-2.5925,-2.593,-2.5938,-2.5941,-2.5945,-2.5945,-2.5946,-2.5947,-2.5947,-2.5946,-2.5942,-2.5946,-2.5946,-2.5946,-2.5946,-2.5946,0,-2.5884,-2.5887,-2.5892,-2.5898,-2.5902,-2.5903,-2.5908,-2.5911,-2.5915,-2.592,-2.5924,-2.593,-2.5935,-2.5939,-2.5944,-2.5946,-2.5947,-2.5947,-2.5947,-2.5948,-2.5946,-2.5945,-2.5946,-2.5946,-2.5946,-2.5946,-2.5946,-2.5946,-2.5888,-2.5893,-2.5895,-2.5903,-2.5906,-2.5911,-2.5913,-2.5917,-2.592,-2.5926,-2.593,-2.5932,-2.5936,-2.5941,-2.5946,-2.5947,-2.5948,-2.5948,-2.5949,-2.5948,-2.5948,-2.5948,-2.5947,-2.5948,-2.5948,-2.595,-2.595,-2.595]}]]